Time,TemperatureF,DewpointF,PressureIn,WindDirection,WindDirectionDegrees,WindSpeedMPH,WindSpeedGustMPH,Humidity,HourlyPrecipIn,Conditions,Clouds,dailyrainin,SoftwareType,DateUTC
2013-02-22 00:14:00,46.3,44.0,29.92,South,186,7.0,-999.0,92,-99.99,,,0.00,weatherlink.com 1.10,2013-02-22 05:14:00,
2013-02-22 00:29:00,46.4,44.0,29.93,SSW,206,14.0,-999.0,92,-99.99,,,0.00,weatherlink.com 1.10,2013-02-22 05:29:00,
2013-02-22 00:44:00,46.9,45.0,29.93,SSE,150,4.0,-999.0,92,-99.99,,,0.00,weatherlink.com 1.10,2013-02-22 05:44:00,
2013-02-22 00:59:00,47.1,45.0,29.94,South,186,8.0,-999.0,92,-99.99,,,0.00,weatherlink.com 1.10,2013-02-22 05:59:00,
2013-02-22 01:14:00,46.9,45.0,29.95,SSE,166,4.0,-999.0,93,-99.99,,,0.00,weatherlink.com 1.10,2013-02-22 06:14:00,
2013-02-22 01:29:00,46.6,45.0,29.95,SSE,149,2.0,-999.0,93,-99.99,,,0.00,weatherlink.com 1.10,2013-02-22 06:29:00,
2013-02-22 01:44:00,46.4,44.0,29.95,South,185,7.0,-999.0,92,-99.99,,,0.00,weatherlink.com 1.10,2013-02-22 06:44:00,
2013-02-22 01:59:00,46.3,44.0,29.95,South,180,7.0,-999.0,93,-99.99,,,0.00,weatherlink.com 1.10,2013-02-22 06:59:00,
2013-02-22 02:14:00,46.3,44.0,29.96,SSE,148,0.0,-999.0,93,-99.99,,,0.00,weatherlink.com 1.10,2013-02-22 07:14:00,
2013-02-22 02:29:00,46.2,44.0,29.95,SSE,148,6.0,-999.0,93,-99.99,,,0.00,weatherlink.com 1.10,2013-02-22 07:29:00,
2013-02-22 02:44:00,46.1,44.0,29.95,SSE,149,6.0,-999.0,93,-99.99,,,0.00,weatherlink.com 1.10,2013-02-22 07:44:00,
2013-02-22 02:59:00,46.0,44.0,29.94,SSE,163,4.0,-999.0,93,-99.99,,,0.00,weatherlink.com 1.10,2013-02-22 07:59:00,
2013-02-22 03:14:00,46.0,44.0,29.93,SE,141,9.0,-999.0,93,-99.99,,,0.00,weatherlink.com 1.10,2013-02-22 08:14:00,
2013-02-22 03:29:00,46.0,44.0,29.93,South,183,5.0,-999.0,93,-99.99,,,0.00,weatherlink.com 1.10,2013-02-22 08:29:00,
2013-02-22 03:44:00,46.1,44.0,29.93,SSE,155,4.0,-999.0,92,-99.99,,,0.00,weatherlink.com 1.10,2013-02-22 08:44:00,
2013-02-22 04:00:00,46.2,44.0,29.94,South,169,9.0,-999.0,92,-99.99,,,0.00,weatherlink.com 1.10,2013-02-22 09:00:00,
2013-02-22 04:14:00,46.3,44.0,29.94,SSE,153,2.0,-999.0,92,-99.99,,,0.00,weatherlink.com 1.10,2013-02-22 09:14:00,
2013-02-22 04:29:00,46.3,44.0,29.93,South,169,5.0,-999.0,92,-99.99,,,0.00,weatherlink.com 1.10,2013-02-22 09:29:00,
2013-02-22 04:44:00,46.5,44.0,29.94,SSE,149,2.0,-999.0,92,-99.99,,,0.00,weatherlink.com 1.10,2013-02-22 09:44:00,
2013-02-22 05:00:00,46.5,44.0,29.95,SSE,166,5.0,-999.0,92,-99.99,,,0.00,weatherlink.com 1.10,2013-02-22 10:00:00,
2013-02-22 05:15:00,46.7,45.0,29.96,South,190,8.0,-999.0,92,-99.99,,,0.00,weatherlink.com 1.10,2013-02-22 10:15:00,
2013-02-22 05:29:00,46.8,45.0,29.96,SSE,148,6.0,-999.0,92,-99.99,,,0.00,weatherlink.com 1.10,2013-02-22 10:29:00,
2013-02-22 05:44:00,46.8,45.0,29.97,SSE,156,0.0,-999.0,92,-99.99,,,0.00,weatherlink.com 1.10,2013-02-22 10:44:00,
2013-02-22 05:59:00,46.9,45.0,29.97,SSE,155,2.0,-999.0,93,-99.99,,,0.00,weatherlink.com 1.10,2013-02-22 10:59:00,
2013-02-22 06:14:00,47.0,45.0,29.98,SSE,148,2.0,-999.0,93,-99.99,,,0.00,weatherlink.com 1.10,2013-02-22 11:14:00,
2013-02-22 06:30:00,47.0,45.0,29.99,SSE,158,1.0,-999.0,93,-99.99,,,0.00,weatherlink.com 1.10,2013-02-22 11:30:00,
2013-02-22 06:44:00,47.0,45.0,29.99,SSE,147,4.0,-999.0,93,-99.99,,,0.00,weatherlink.com 1.10,2013-02-22 11:44:00,
2013-02-22 06:59:00,47.0,45.0,30.00,SE,146,0.0,-999.0,93,-99.99,,,0.00,weatherlink.com 1.10,2013-02-22 11:59:00,
2013-02-22 07:14:00,47.0,45.0,30.00,SE,138,4.0,-999.0,93,-99.99,,,0.00,weatherlink.com 1.10,2013-02-22 12:14:00,
2013-02-22 07:29:00,46.9,45.0,30.01,SE,144,0.0,-999.0,93,-99.99,,,0.00,weatherlink.com 1.10,2013-02-22 12:29:00,
2013-02-22 07:44:00,46.9,45.0,30.02,SE,142,0.0,-999.0,93,-99.99,,,0.00,weatherlink.com 1.10,2013-02-22 12:44:00,
2013-02-22 07:59:00,46.9,45.0,30.03,SE,140,5.0,-999.0,93,-99.99,,,0.00,weatherlink.com 1.10,2013-02-22 12:59:00,
2013-02-22 08:15:00,46.9,45.0,30.03,SE,139,0.0,-999.0,93,-99.99,,,0.00,weatherlink.com 1.10,2013-02-22 13:15:00,
2013-02-22 08:29:00,46.7,45.0,30.02,SSE,153,4.0,-999.0,93,-99.99,,,0.00,weatherlink.com 1.10,2013-02-22 13:29:00,
2013-02-22 08:44:00,46.7,45.0,30.03,SSE,154,0.0,-999.0,93,-99.99,,,0.00,weatherlink.com 1.10,2013-02-22 13:44:00,
2013-02-22 08:59:00,46.7,45.0,30.03,SSE,158,4.0,-999.0,93,-99.99,,,0.00,weatherlink.com 1.10,2013-02-22 13:59:00,
2013-02-22 09:14:00,46.8,45.0,30.03,SSE,158,4.0,-999.0,93,-99.99,,,0.00,weatherlink.com 1.10,2013-02-22 14:14:00,
2013-02-22 09:29:00,46.8,45.0,30.04,SSE,159,2.0,-999.0,93,-99.99,,,0.00,weatherlink.com 1.10,2013-02-22 14:29:00,
2013-02-22 09:44:00,46.9,45.0,30.04,SSE,157,4.0,-999.0,93,-99.99,,,0.00,weatherlink.com 1.10,2013-02-22 14:44:00,
2013-02-22 10:00:00,46.9,45.0,30.05,SSE,160,4.0,-999.0,93,-99.99,,,0.00,weatherlink.com 1.10,2013-02-22 15:00:00,
2013-02-22 10:15:00,46.9,45.0,30.05,SSE,150,2.0,-999.0,93,-99.99,,,0.00,weatherlink.com 1.10,2013-02-22 15:15:00,
2013-02-22 10:30:00,46.8,45.0,30.05,South,185,4.0,-999.0,93,-99.99,,,0.00,weatherlink.com 1.10,2013-02-22 15:30:00,
2013-02-22 10:45:00,46.9,45.0,30.05,SSE,159,5.0,-999.0,93,-99.99,,,0.00,weatherlink.com 1.10,2013-02-22 15:45:00,
2013-02-22 11:00:00,46.7,45.0,30.05,SE,140,9.0,-999.0,93,-99.99,,,0.00,weatherlink.com 1.10,2013-02-22 16:00:00,
2013-02-22 11:15:00,46.8,45.0,30.05,SE,139,1.0,-999.0,93,-99.99,,,0.00,weatherlink.com 1.10,2013-02-22 16:15:00,
2013-02-22 11:30:00,46.9,45.0,30.07,South,180,1.0,-999.0,93,-99.99,,,0.00,weatherlink.com 1.10,2013-02-22 16:30:00,
2013-02-22 11:45:00,47.0,45.0,30.06,SSE,156,0.0,-999.0,93,-99.99,,,0.00,weatherlink.com 1.10,2013-02-22 16:45:00,
2013-02-22 12:00:00,47.1,45.0,30.06,SSE,162,0.0,-999.0,93,-99.99,,,0.00,weatherlink.com 1.10,2013-02-22 17:00:00,
2013-02-22 12:15:00,47.2,45.0,30.06,SSE,166,0.0,-999.0,93,-99.99,,,0.00,weatherlink.com 1.10,2013-02-22 17:15:00,
2013-02-22 12:30:00,47.4,46.0,30.07,South,184,0.0,-999.0,93,-99.99,,,0.00,weatherlink.com 1.10,2013-02-22 17:30:00,
2013-02-22 12:45:00,47.4,46.0,30.07,SE,133,0.0,-999.0,93,-99.99,,,0.00,weatherlink.com 1.10,2013-02-22 17:45:00,
2013-02-22 13:00:00,47.5,45.0,30.06,South,177,4.0,-999.0,92,-99.99,,,0.00,weatherlink.com 1.10,2013-02-22 18:00:00,
2013-02-22 13:15:00,47.5,45.0,30.06,South,173,0.0,-999.0,92,-99.99,,,0.00,weatherlink.com 1.10,2013-02-22 18:15:00,
2013-02-22 13:30:00,47.4,46.0,30.05,SE,137,6.0,-999.0,93,-99.99,,,0.00,weatherlink.com 1.10,2013-02-22 18:30:00,
2013-02-22 13:45:00,47.5,45.0,30.05,South,173,0.0,-999.0,92,-99.99,,,0.00,weatherlink.com 1.10,2013-02-22 18:45:00,
2013-02-22 14:00:00,47.6,45.0,30.04,South,169,4.0,-999.0,92,-99.99,,,0.00,weatherlink.com 1.10,2013-02-22 19:00:00,
2013-02-22 14:15:00,47.5,46.0,30.03,East,98,6.0,-999.0,93,-99.99,,,0.00,weatherlink.com 1.10,2013-02-22 19:15:00,
2013-02-22 14:30:00,47.7,46.0,30.02,SE,146,0.0,-999.0,93,-99.99,,,0.00,weatherlink.com 1.10,2013-02-22 19:30:00,
2013-02-22 14:45:00,47.4,46.0,30.00,SE,137,7.0,-999.0,93,-99.99,,,0.00,weatherlink.com 1.10,2013-02-22 19:45:00,
2013-02-22 15:00:00,47.2,45.0,30.00,SE,128,5.0,-999.0,93,-99.99,,,0.00,weatherlink.com 1.10,2013-02-22 20:00:00,
2013-02-22 15:15:00,47.0,45.0,30.01,ESE,117,7.0,-999.0,93,-99.99,,,0.00,weatherlink.com 1.10,2013-02-22 20:15:00,
2013-02-22 15:30:00,46.9,45.0,30.01,ESE,105,2.0,-999.0,93,-99.99,,,0.00,weatherlink.com 1.10,2013-02-22 20:30:00,
2013-02-22 15:45:00,46.7,45.0,30.01,SE,138,0.0,-999.0,93,-99.99,,,0.00,weatherlink.com 1.10,2013-02-22 20:45:00,
2013-02-22 16:00:00,47.0,45.0,30.00,ESE,117,6.0,-999.0,93,-99.99,,,0.00,weatherlink.com 1.10,2013-02-22 21:00:00,
2013-02-22 16:15:00,46.9,45.0,29.99,SE,126,6.0,-999.0,92,-99.99,,,0.00,weatherlink.com 1.10,2013-02-22 21:15:00,
2013-02-22 16:30:00,46.6,45.0,29.99,SE,134,5.0,-999.0,93,-99.99,,,0.00,weatherlink.com 1.10,2013-02-22 21:30:00,
2013-02-22 16:45:00,46.7,45.0,29.99,ESE,115,4.0,-999.0,93,-99.99,,,0.00,weatherlink.com 1.10,2013-02-22 21:45:00,
2013-02-22 17:00:00,46.4,45.0,30.01,ESE,122,1.0,-999.0,93,-99.99,,,0.00,weatherlink.com 1.10,2013-02-22 22:00:00,
2013-02-22 17:15:00,46.5,45.0,30.02,SSE,163,1.0,-999.0,93,-99.99,,,0.00,weatherlink.com 1.10,2013-02-22 22:15:00,
2013-02-22 17:30:00,46.4,45.0,30.00,SE,135,5.0,-999.0,93,-99.99,,,0.00,weatherlink.com 1.10,2013-02-22 22:30:00,
2013-02-22 17:45:00,46.1,44.0,30.01,SE,139,4.0,-999.0,93,-99.99,,,0.00,weatherlink.com 1.10,2013-02-22 22:45:00,
2013-02-22 18:00:00,45.9,44.0,30.00,SE,140,4.0,-999.0,93,-99.99,,,0.00,weatherlink.com 1.10,2013-02-22 23:00:00,
2013-02-22 18:15:00,45.8,44.0,30.01,SE,129,4.0,-999.0,93,-99.99,,,0.00,weatherlink.com 1.10,2013-02-22 23:15:00,
2013-02-22 18:30:00,45.6,44.0,30.01,SE,142,0.0,-999.0,93,-99.99,,,0.00,weatherlink.com 1.10,2013-02-22 23:30:00,
2013-02-22 18:45:00,45.4,44.0,30.01,SE,138,2.0,-999.0,93,-99.99,,,0.00,weatherlink.com 1.10,2013-02-22 23:45:00,
2013-02-22 19:00:00,45.1,43.0,30.00,SE,134,6.0,-999.0,93,-99.99,,,0.00,weatherlink.com 1.10,2013-02-23 00:00:00,
2013-02-22 19:15:00,45.0,43.0,29.99,SSE,147,0.0,-999.0,93,-99.99,,,0.00,weatherlink.com 1.10,2013-02-23 00:15:00,
2013-02-22 19:30:00,44.9,43.0,30.00,SE,146,2.0,-999.0,93,-99.99,,,0.00,weatherlink.com 1.10,2013-02-23 00:30:00,
2013-02-22 19:45:00,44.6,43.0,29.98,ESE,120,0.0,-999.0,92,-99.99,,,0.00,weatherlink.com 1.10,2013-02-23 00:45:00,
2013-02-22 20:00:00,44.5,42.0,30.00,SE,130,0.0,-999.0,92,-99.99,,,0.00,weatherlink.com 1.10,2013-02-23 01:00:00,
2013-02-22 20:16:00,44.6,43.0,30.05,SW,220,0.0,-999.0,92,-99.99,,,0.00,weatherlink.com 1.10,2013-02-23 01:16:00,
2013-02-22 20:31:00,44.5,42.0,30.03,SE,132,0.0,-999.0,92,-99.99,,,0.00,weatherlink.com 1.10,2013-02-23 01:31:00,
2013-02-22 20:45:00,44.5,42.0,30.04,West,264,0.0,-999.0,92,-99.99,,,0.00,weatherlink.com 1.10,2013-02-23 01:45:00,
2013-02-22 21:00:00,44.5,42.0,30.04,SE,142,0.0,-999.0,91,-99.99,,,0.00,weatherlink.com 1.10,2013-02-23 02:00:00,
2013-02-22 21:15:00,44.4,42.0,30.01,SE,132,0.0,-999.0,91,-99.99,,,0.00,weatherlink.com 1.10,2013-02-23 02:15:00,
2013-02-22 21:31:00,44.3,42.0,29.99,SE,134,2.0,-999.0,91,-99.99,,,0.00,weatherlink.com 1.10,2013-02-23 02:31:00,
2013-02-22 21:45:00,44.4,42.0,30.04,SW,219,0.0,-999.0,91,-99.99,,,0.00,weatherlink.com 1.10,2013-02-23 02:45:00,
2013-02-22 22:00:00,44.4,42.0,30.04,SE,134,0.0,-999.0,91,-99.99,,,0.00,weatherlink.com 1.10,2013-02-23 03:00:00,
2013-02-22 22:15:00,44.4,42.0,30.02,ESE,123,0.0,-999.0,91,-99.99,,,0.00,weatherlink.com 1.10,2013-02-23 03:15:00,
2013-02-22 22:30:00,44.4,42.0,30.01,ESE,122,0.0,-999.0,91,-99.99,,,0.00,weatherlink.com 1.10,2013-02-23 03:30:00,
2013-02-22 22:46:00,44.2,42.0,29.99,SE,146,0.0,-999.0,91,-99.99,,,0.00,weatherlink.com 1.10,2013-02-23 03:46:00,
2013-02-22 23:04:00,44.1,42.0,29.97,ESE,113,5.0,-999.0,91,-99.99,,,0.00,weatherlink.com 1.10,2013-02-23 04:04:00,
2013-02-22 23:16:00,44.1,42.0,30.02,SSE,152,0.0,-999.0,91,-99.99,,,0.00,weatherlink.com 1.10,2013-02-23 04:16:00,
2013-02-22 23:31:00,44.2,42.0,30.01,NNE,13,3.0,-999.0,91,-99.99,,,0.00,weatherlink.com 1.10,2013-02-23 04:31:00,
2013-02-22 23:46:00,44.1,42.0,30.02,NNE,26,4.0,-999.0,91,-99.99,,,0.00,weatherlink.com 1.10,2013-02-23 04:46:00,